SCP
0 0 0 0 0 0 0 0 0 0 0 0 0 0 0 0 0 0 0 0 0 0 0 0 0 0 0 0 0 0 0 0 0 0 0 0 0 0 0 0 0 0 0
0 0 0 0 0 0 0 0 0 0 0 0 0 0 0 0 0 0 0 0 0 0 0 0 0 0 0 0 0 0 0 0 0 0 -0 0 -0 0 0 0 0 0 0
0 0 0 0 0 0 0 0 0 0 0 0 0 0 0 0 0 0 0 0 0 0 0 0 0 0 0 0 0 0 0 0 0 0 0 0 0 0 0 0 0 0 0
0 0 0 0 0 0 0 0 0 0 0 0 0 0 0 0 0 0 0 0 0 0 0 0 0 0 0 0 0 0 0 0 0 0 0 0 0 0 0 0 0 0 0
0 0 0 0 0 0 0 0 0 0 0 0 0 0 0 0 0 0 0 0 0 0 0 0 0 0 0 0 0 0 0 0 0 0 0 0 0 0 0 0 0 0 0
0 0 0 0 0 0 0 0 0 0 0 0 0 0 0 0 0 0 0 0 0 0 0 0 0 0 0 0 0 0 0 0 0 0 0 0 0 0 0 0 0 0 0
0 0 0 0 0 0 0 0 0 0 0 0 0 0 0 0 0 0 0 0 0 0 0 0 0 0 0 0 0 0 0 0 0 0 0 0 0 0 0 0 0 0 0
0 0 0 0 0 0 0 0 0 0 0 0 0 0 0 0 0 0 0 0 0 0 0 0 0 0 0 0 0 0 0 0 0 0 0 0 0 0 0 0 0 0 0
0 0 0 0 0 0 0 0 0 0 0 0 0 0 0 0 0 0 0 0 0 0 0 0 0 0 0 0 0 0 0 0 0 0 0 0 0 0 0 0 0 0 0
0 0 0 0 0 0 0 0 0 0 0 0 0 0 0 0 0 0 0 0 0 0 0 0 0 0 0 0 0 0 0 0 0 0 0 0 0 0 0 0 0 0 0
0 0 0 0 0 0 0 0 0 0 0 0 0 0 0 0 0 0 0 0 0 0 0 0 0 0 0 0 0 0 0 0 0 0 0 0 0 0 0 0 0 0 0
0 0 0 0 0 0 0 0 0 0 0 0 0 0 0 0 0 0 0 0 0 0 0 0 0 0 0 0 0 0 0 0 0 0 0 0 0 0 0 0 0 0 0
0 0 0 0 0 0 0 0 0 0 0 0 0 0 0 0 0 0 0 0 0 0 0 0 0 0 0 0 0 0 0 0 0 0 0 0 0 0 0 0 0 0 0
0 0 0 0 0 0 0 0 0 0 0 0 0 0 0 0 0 0 0 0 0 0 0 0 0 0 0 0 0 0 0 0 0 0 0 0 0 0 0 0 0 0 0
0 0 0 0 0 0 0 0 0 0 0 0 0 0 0 0 0 0 0 0 0 0 0 0 0 0 0 0 0 0 0 0 0 0 0 0 0 0 0 0 0 0 0
0 0 0 0 0 0 0 0 0 0 0 0 0 0 0 0 0 0 0 0 0 0 0 0 0 0 0 0 0 0 0 0 0 0 0 0 0 0 0 0 0 0 0
-0 -0 -0 0 0 0 0 0 0 0 0 0 0 0 0 0 0 0 0 0 0 0 0 0 0 0 0 0 0 0 0 0 0 0 0 0 0 0 0 0 0 0 0
0 0 0 0 0 0 0 0 0 0 0 0 0 0 0 0 0 0 0 0 0 0 0 0 0 0 0 0 0 0 0 0 0 0 0 0 0 0 0 0 0 0 0
0 0 0 0 0 0 0 0 0 0 0 0 0 0 0 0 0 0 0 0 0 0 0 0 0 0 0 0 0 0 0 0 0 0 0 0 0 0 0 0 0 0 0
0 0 0 0 0 0 0 0 0 0 0 0 0 0 0 0 0 0 0 0 0 0 0 0 0 0 0 0 0 0 0 0 0 0 0 0 0 0 0 0 0 0 0
0 0 0 0 0 0 0 0 0 0 0 0 0 0 0 0 0 0 0 0 0 0 0 0 0 0 0 0 0 0 0 0 0 0 0 0 0 0 0 0 0 0 0
0 0 0 0 0 0 0 0 0 0 0 0 0 0 0 0 0 0 0 0 0 0 0 0 0 0 0 0 0 0 0 0 0 0 0 0 0 0 0 0 -0 0 0
0 0 0 0 0 0 0 0 0 0 0 0 0 0 0 0 0 0 0 0 0 0 0 0 0 0 0 0 0 0 0 0 0 0 0 0 0 0 0 0 0 0 0
0 0 0 0 0 0 0 0 0 0 0 0 0 0 0 0 0 0 0 0 0 0 0 0 0 0 0 0 0 0 0 0 0 0 0 0 0 0 0 0 0 0 0
0 0 0 0 0 0 0 0 0 0 0 0 0 0 0 0 0 0 0 0 0 0 0 0 0 0 0 0 0 0 0 0 0 0 0 0 0 0 0 0 0 0 0
-0 -0 -0 0 0 0 0 0 0 0 0 0 0 0 0 0 0 0 0 0 0 0 0 0 0 0 0 0 0 0 0 0 0 0 0 0 0 0 0 0 0 0 0
Wind_Speed_500mb
80 83 85 84 86 81 78 79 78 75 68 68 67 62 56 44 34 28 26 22 22 21 21 20 24 25 28 30 32 33 34 36 42 54 60 58 53 45 59 77 64 73 66
85 71 84 86 89 88 85 83 84 80 76 74 69 64 55 45 37 33 30 24 22 23 21 21 24 25 27 29 32 32 31 36 42 52 54 42 62 61 95 78 80 75 58
79 88 81 83 89 93 92 90 87 85 80 75 71 68 60 53 49 43 34 24 23 23 22 23 24 24 25 28 30 28 27 31 39 46 38 24 26 94 81 92 76 53 80
71 73 79 91 90 95 91 90 90 89 82 78 78 75 73 64 52 40 33 28 24 22 23 24 24 24 25 27 27 26 25 30 38 43 46 49 47 37 66 86 84 67 84
58 60 65 78 88 88 94 94 91 88 85 81 80 77 75 63 50 45 41 33 26 23 24 27 25 24 24 26 25 24 25 31 37 42 48 52 53 49 36 81 114 112 85
30 40 45 56 79 87 88 90 93 90 87 83 81 81 77 69 62 54 47 39 31 26 27 28 26 27 26 25 24 23 26 33 39 44 48 50 52 57 41 64 95 98 112
20 28 41 55 68 86 88 90 90 92 89 84 82 80 76 72 68 59 52 46 37 30 29 29 28 27 26 25 25 25 29 35 40 47 51 56 61 54 47 62 88 95 105
16 22 30 47 61 72 81 86 86 88 90 84 82 77 75 74 71 63 57 50 42 35 33 30 30 29 27 26 27 27 31 37 42 48 55 61 61 49 52 56 67 96 90
14 16 23 34 51 62 70 78 83 83 81 78 76 78 76 76 73 65 60 54 48 40 36 33 33 31 29 28 28 30 33 39 45 51 57 61 58 56 52 47 51 63 85
18 19 21 25 35 47 58 67 73 75 74 75 73 72 73 74 70 67 63 59 52 45 40 37 35 33 30 30 30 31 35 40 46 52 58 59 58 57 51 46 46 46 57
19 18 20 24 28 39 49 57 65 71 72 69 69 70 70 71 71 69 64 62 57 49 43 40 38 34 33 32 31 32 36 41 47 53 58 58 55 56 48 46 45 50 47
22 22 21 22 30 36 42 50 54 60 63 64 64 65 64 67 72 71 67 65 59 51 46 43 40 37 36 34 32 33 35 40 48 54 57 57 55 53 45 43 43 46 47
9 15 21 26 28 38 45 49 53 55 57 59 59 60 62 67 72 71 68 66 60 55 50 46 42 39 37 35 33 33 33 40 47 52 55 57 54 49 44 40 41 43 51
14 12 18 25 28 35 46 52 55 57 57 58 60 61 63 68 70 69 69 68 62 58 52 48 43 41 40 36 32 32 33 38 44 50 53 55 54 45 42 39 42 45 51
20 22 26 28 34 42 47 55 62 61 62 64 65 60 60 65 69 70 71 66 64 58 53 50 47 44 41 36 32 31 33 37 42 48 51 54 54 43 38 36 39 43 49
40 44 50 55 59 55 55 61 68 73 77 72 68 61 60 66 70 71 71 67 66 61 58 54 49 46 41 37 32 31 31 36 44 48 49 52 53 45 40 37 36 34 42
57 50 41 41 48 55 59 66 69 76 85 89 82 71 67 67 70 72 71 72 69 63 61 55 51 46 43 38 33 31 31 34 43 49 51 52 53 47 39 36 32 35 35
54 56 57 53 42 45 54 58 60 64 71 85 91 84 74 71 71 74 74 74 70 67 62 56 51 47 45 39 34 31 31 32 40 47 50 54 55 47 37 35 32 33 29
49 51 52 53 46 40 39 49 58 64 66 72 83 90 83 79 75 78 78 76 71 68 64 57 52 49 46 41 35 33 30 30 37 43 47 51 54 51 36 32 31 26 28
57 60 57 53 47 46 45 45 47 50 67 74 74 83 91 84 79 80 78 74 72 67 61 57 54 50 46 43 38 35 29 29 34 38 42 45 50 47 40 31 29 29 33
59 59 61 60 60 56 53 46 44 41 41 52 65 73 84 79 77 77 74 71 68 66 62 59 56 53 48 46 41 36 31 29 31 35 37 40 45 41 36 29 25 26 28
67 63 61 60 60 59 57 51 45 40 36 38 49 60 68 73 76 74 71 70 70 68 65 62 59 56 52 48 44 38 35 30 29 33 35 36 41 40 36 30 21 21 24
61 62 65 61 55 55 56 56 55 49 37 30 29 41 52 65 70 71 71 72 73 71 68 65 61 57 53 49 46 41 37 32 29 30 32 32 34 35 33 29 22 19 20
62 65 65 62 60 54 52 52 54 51 40 29 23 28 43 56 64 69 71 74 75 73 68 64 59 55 53 51 48 44 41 34 30 30 30 30 29 32 30 28 23 18 14
59 62 58 60 62 61 52 51 52 51 47 29 25 19 31 45 58 65 70 73 70 65 61 55 49 49 52 48 42 43 42 35 33 31 28 27 26 27 28 24 19 14 7
60 58 59 61 58 58 53 51 48 50 49 40 28 27 24 29 44 58 67 71 70 63 60 56 51 47 45 44 43 47 45 42 39 34 28 24 21 21 21 18 15 10 5
Wind_Direction_500mb
245 239 235 231 229 226 224 220 214 212 212 210 210 212 216 217 220 224 235 246 255 260 274 288 295 299 300 306 311 313 319 324 328 330 329 335 334 327 327 326 322 319 318
244 238 231 229 227 225 223 220 217 213 215 215 215 216 217 219 223 227 232 243 253 259 270 282 291 296 301 306 309 315 323 327 338 342 343 338 339 325 327 327 325 321 320
247 239 228 226 224 223 222 219 218 215 217 218 215 217 215 219 222 225 229 240 251 261 269 280 289 295 298 302 307 312 320 329 336 341 345 340 320 326 327 328 323 320 314
247 244 237 226 222 221 221 221 219 217 218 220 218 219 219 219 224 229 228 238 249 262 271 279 286 289 293 298 301 307 318 328 331 335 334 331 324 324 320 329 313 318 313
244 238 236 229 223 219 219 219 218 217 219 221 222 222 222 222 227 229 229 235 249 263 269 275 283 286 287 290 293 301 315 322 327 329 326 324 321 322 291 300 315 313 314
238 235 236 231 222 219 219 218 217 217 219 222 223 223 224 222 226 229 230 235 247 260 268 273 280 280 282 284 285 294 308 317 322 324 323 320 317 312 298 294 299 301 309
242 229 223 218 217 216 216 215 217 217 219 222 223 225 225 225 230 234 236 238 247 261 269 272 275 275 276 277 279 290 304 313 319 322 321 321 319 319 304 297 296 299 306
244 236 229 220 219 217 216 216 216 217 219 221 223 226 228 228 231 235 237 241 248 259 267 269 273 272 270 269 274 289 301 310 318 321 320 321 320 319 304 301 300 301 302
250 240 233 227 223 218 218 217 217 218 220 222 223 226 228 229 232 235 239 241 246 255 265 266 268 266 264 263 271 285 299 309 316 320 323 322 327 322 315 304 294 295 303
249 249 236 232 229 225 222 219 220 222 223 223 226 230 232 232 234 236 240 243 246 253 262 263 263 262 259 259 269 285 299 308 316 322 324 326 328 323 315 310 302 300 300
263 260 251 239 227 221 220 219 220 222 225 227 230 232 233 234 234 238 241 243 246 251 259 259 259 258 254 257 269 284 296 309 319 324 326 330 326 325 321 315 312 305 300
265 262 266 242 227 218 214 214 217 222 225 228 231 234 235 234 235 239 242 243 246 250 255 255 254 253 251 255 267 282 297 312 321 326 329 331 327 328 320 316 315 308 311
301 257 255 248 234 216 211 210 212 216 222 228 231 234 235 234 237 240 242 243 244 248 251 250 251 250 249 254 266 282 300 314 321 328 331 332 327 326 320 318 317 317 315
358 327 272 254 248 233 223 217 217 220 224 228 231 235 238 239 240 242 241 241 242 245 247 247 248 247 247 252 265 282 299 313 323 329 330 334 328 319 316 317 319 317 319
321 309 305 288 264 251 244 236 231 229 230 233 234 238 246 246 243 241 238 238 239 242 243 242 243 244 244 251 264 281 297 313 324 329 333 337 329 315 299 306 311 311 318
355 331 319 311 302 287 268 257 251 247 240 237 238 241 248 247 243 239 235 236 237 238 238 239 241 241 242 249 259 274 295 313 322 330 336 337 330 317 292 299 297 303 311
343 340 335 321 308 297 294 290 280 275 259 246 243 244 248 247 243 238 234 235 236 236 235 237 238 238 239 246 258 275 294 309 321 328 337 339 333 321 300 299 298 304 307
346 341 335 328 319 299 278 273 273 280 274 257 249 247 248 246 241 236 234 235 235 234 233 236 236 235 238 245 255 271 285 307 320 328 337 338 336 326 301 300 310 312 321
356 348 344 338 328 324 304 281 266 263 265 263 255 253 252 247 239 235 233 233 232 229 230 233 234 236 237 243 250 262 279 303 316 327 334 337 335 329 310 298 305 313 318
5 3 355 351 340 332 322 304 286 270 261 257 257 258 252 245 240 237 233 232 229 227 230 232 234 235 234 242 247 258 272 293 310 324 330 335 334 332 317 304 306 306 308
356 359 0 359 356 347 340 332 314 293 273 260 256 256 249 242 240 236 232 230 225 225 227 230 232 235 235 239 245 253 265 282 301 317 329 334 333 334 318 306 301 302 310
346 348 352 355 356 354 347 346 339 320 296 282 269 255 244 236 235 231 227 224 221 223 225 229 231 234 234 236 243 248 258 270 291 309 324 333 332 336 333 319 300 307 312
332 334 340 341 349 353 354 348 344 337 314 297 298 273 245 237 233 226 222 218 219 222 226 229 232 235 235 238 241 245 252 263 280 300 317 330 333 337 339 333 319 313 308
326 326 329 329 335 343 349 348 341 340 331 307 296 282 256 236 227 224 221 219 220 223 227 231 234 237 238 240 240 241 246 254 270 287 305 324 331 337 341 343 335 334 325
322 324 325 326 327 329 335 341 338 335 333 329 301 288 267 242 232 228 225 224 227 231 234 239 241 244 243 249 251 247 246 251 261 275 293 314 329 336 340 341 337 330 345
317 319 325 325 325 325 328 329 332 330 324 335 326 289 266 261 249 239 235 231 232 235 237 239 241 243 245 239 241 243 244 245 252 261 276 297 322 326 332 327 333 327 339
Wind_Speed_850mb
80 83 85 84 86 81 78 79 78 75 68 68 67 62 56 44 34 28 26 22 22 21 21 20 24 25 28 30 32 33 34 36 42 54 60 58 53 45 59 77 64 73 66
85 71 84 86 89 88 85 83 84 80 76 74 69 64 55 45 37 33 30 24 22 23 21 21 24 25 27 29 32 32 31 36 42 52 54 42 62 61 95 78 80 75 58
79 88 81 83 89 93 92 90 87 85 80 75 71 68 60 53 49 43 34 24 23 23 22 23 24 24 25 28 30 28 27 31 39 46 38 24 26 94 81 92 76 53 80
71 73 79 91 90 95 91 90 90 89 82 78 78 75 73 64 52 40 33 28 24 22 23 24 24 24 25 27 27 26 25 30 38 43 46 49 47 37 66 86 84 67 84
58 60 65 78 88 88 94 94 91 88 85 81 80 77 75 63 50 45 41 33 26 23 24 27 25 24 24 26 25 24 25 31 37 42 48 52 53 49 36 81 114 112 85
30 40 45 56 79 87 88 90 93 90 87 83 81 81 77 69 62 54 47 39 31 26 27 28 26 27 26 25 24 23 26 33 39 44 48 50 52 57 41 64 95 98 112
20 28 41 55 68 86 88 90 90 92 89 84 82 80 76 72 68 59 52 46 37 30 29 29 28 27 26 25 25 25 29 35 40 47 51 56 61 54 47 62 88 95 105
16 22 30 47 61 72 81 86 86 88 90 84 82 77 75 74 71 63 57 50 42 35 33 30 30 29 27 26 27 27 31 37 42 48 55 61 61 49 52 56 67 96 90
14 16 23 34 51 62 70 78 83 83 81 78 76 78 76 76 73 65 60 54 48 40 36 33 33 31 29 28 28 30 33 39 45 51 57 61 58 56 52 47 51 63 85
18 19 21 25 35 47 58 67 73 75 74 75 73 72 73 74 70 67 63 59 52 45 40 37 35 33 30 30 30 31 35 40 46 52 58 59 58 57 51 46 46 46 57
19 18 20 24 28 39 49 57 65 71 72 69 69 70 70 71 71 69 64 62 57 49 43 40 38 34 33 32 31 32 36 41 47 53 58 58 55 56 48 46 45 50 47
22 22 21 22 30 36 42 50 54 60 63 64 64 65 64 67 72 71 67 65 59 51 46 43 40 37 36 34 32 33 35 40 48 54 57 57 55 53 45 43 43 46 47
9 15 21 26 28 38 45 49 53 55 57 59 59 60 62 67 72 71 68 66 60 55 50 46 42 39 37 35 33 33 33 40 47 52 55 57 54 49 44 40 41 43 51
14 12 18 25 28 35 46 52 55 57 57 58 60 61 63 68 70 69 69 68 62 58 52 48 43 41 40 36 32 32 33 38 44 50 53 55 54 45 42 39 42 45 51
20 22 26 28 34 42 47 55 62 61 62 64 65 60 60 65 69 70 71 66 64 58 53 50 47 44 41 36 32 31 33 37 42 48 51 54 54 43 38 36 39 43 49
40 44 50 55 59 55 55 61 68 73 77 72 68 61 60 66 70 71 71 67 66 61 58 54 49 46 41 37 32 31 31 36 44 48 49 52 53 45 40 37 36 34 42
57 50 41 41 48 55 59 66 69 76 85 89 82 71 67 67 70 72 71 72 69 63 61 55 51 46 43 38 33 31 31 34 43 49 51 52 53 47 39 36 32 35 35
54 56 57 53 42 45 54 58 60 64 71 85 91 84 74 71 71 74 74 74 70 67 62 56 51 47 45 39 34 31 31 32 40 47 50 54 55 47 37 35 32 33 29
49 51 52 53 46 40 39 49 58 64 66 72 83 90 83 79 75 78 78 76 71 68 64 57 52 49 46 41 35 33 30 30 37 43 47 51 54 51 36 32 31 26 28
57 60 57 53 47 46 45 45 47 50 67 74 74 83 91 84 79 80 78 74 72 67 61 57 54 50 46 43 38 35 29 29 34 38 42 45 50 47 40 31 29 29 33
59 59 61 60 60 56 53 46 44 41 41 52 65 73 84 79 77 77 74 71 68 66 62 59 56 53 48 46 41 36 31 29 31 35 37 40 45 41 36 29 25 26 28
67 63 61 60 60 59 57 51 45 40 36 38 49 60 68 73 76 74 71 70 70 68 65 62 59 56 52 48 44 38 35 30 29 33 35 36 41 40 36 30 21 21 24
61 62 65 61 55 55 56 56 55 49 37 30 29 41 52 65 70 71 71 72 73 71 68 65 61 57 53 49 46 41 37 32 29 30 32 32 34 35 33 29 22 19 20
62 65 65 62 60 54 52 52 54 51 40 29 23 28 43 56 64 69 71 74 75 73 68 64 59 55 53 51 48 44 41 34 30 30 30 30 29 32 30 28 23 18 14
59 62 58 60 62 61 52 51 52 51 47 29 25 19 31 45 58 65 70 73 70 65 61 55 49 49 52 48 42 43 42 35 33 31 28 27 26 27 28 24 19 14 7
60 58 59 61 58 58 53 51 48 50 49 40 28 27 24 29 44 58 67 71 70 63 60 56 51 47 45 44 43 47 45 42 39 34 28 24 21 21 21 18 15 10 5
Wind_Direction_850mb
245 239 235 231 229 226 224 220 214 212 212 210 210 212 216 217 220 224 235 246 255 260 274 288 295 299 300 306 311 313 319 324 328 330 329 335 334 327 327 326 322 319 318
244 238 231 229 227 225 223 220 217 213 215 215 215 216 217 219 223 227 232 243 253 259 270 282 291 296 301 306 309 315 323 327 338 342 343 338 339 325 327 327 325 321 320
247 239 228 226 224 223 222 219 218 215 217 218 215 217 215 219 222 225 229 240 251 261 269 280 289 295 298 302 307 312 320 329 336 341 345 340 320 326 327 328 323 320 314
247 244 237 226 222 221 221 221 219 217 218 220 218 219 219 219 224 229 228 238 249 262 271 279 286 289 293 298 301 307 318 328 331 335 334 331 324 324 320 329 313 318 313
244 238 236 229 223 219 219 219 218 217 219 221 222 222 222 222 227 229 229 235 249 263 269 275 283 286 287 290 293 301 315 322 327 329 326 324 321 322 291 300 315 313 314
238 235 236 231 222 219 219 218 217 217 219 222 223 223 224 222 226 229 230 235 247 260 268 273 280 280 282 284 285 294 308 317 322 324 323 320 317 312 298 294 299 301 309
242 229 223 218 217 216 216 215 217 217 219 222 223 225 225 225 230 234 236 238 247 261 269 272 275 275 276 277 279 290 304 313 319 322 321 321 319 319 304 297 296 299 306
244 236 229 220 219 217 216 216 216 217 219 221 223 226 228 228 231 235 237 241 248 259 267 269 273 272 270 269 274 289 301 310 318 321 320 321 320 319 304 301 300 301 302
250 240 233 227 223 218 218 217 217 218 220 222 223 226 228 229 232 235 239 241 246 255 265 266 268 266 264 263 271 285 299 309 316 320 323 322 327 322 315 304 294 295 303
249 249 236 232 229 225 222 219 220 222 223 223 226 230 232 232 234 236 240 243 246 253 262 263 263 262 259 259 269 285 299 308 316 322 324 326 328 323 315 310 302 300 300
263 260 251 239 227 221 220 219 220 222 225 227 230 232 233 234 234 238 241 243 246 251 259 259 259 258 254 257 269 284 296 309 319 324 326 330 326 325 321 315 312 305 300
265 262 266 242 227 218 214 214 217 222 225 228 231 234 235 234 235 239 242 243 246 250 255 255 254 253 251 255 267 282 297 312 321 326 329 331 327 328 320 316 315 308 311
301 257 255 248 234 216 211 210 212 216 222 228 231 234 235 234 237 240 242 243 244 248 251 250 251 250 249 254 266 282 300 314 321 328 331 332 327 326 320 318 317 317 315
358 327 272 254 248 233 223 217 217 220 224 228 231 235 238 239 240 242 241 241 242 245 247 247 248 247 247 252 265 282 299 313 323 329 330 334 328 319 316 317 319 317 319
321 309 305 288 264 251 244 236 231 229 230 233 234 238 246 246 243 241 238 238 239 242 243 242 243 244 244 251 264 281 297 313 324 329 333 337 329 315 299 306 311 311 318
355 331 319 311 302 287 268 257 251 247 240 237 238 241 248 247 243 239 235 236 237 238 238 239 241 241 242 249 259 274 295 313 322 330 336 337 330 317 292 299 297 303 311
343 340 335 321 308 297 294 290 280 275 259 246 243 244 248 247 243 238 234 235 236 236 235 237 238 238 239 246 258 275 294 309 321 328 337 339 333 321 300 299 298 304 307
346 341 335 328 319 299 278 273 273 280 274 257 249 247 248 246 241 236 234 235 235 234 233 236 236 235 238 245 255 271 285 307 320 328 337 338 336 326 301 300 310 312 321
356 348 344 338 328 324 304 281 266 263 265 263 255 253 252 247 239 235 233 233 232 229 230 233 234 236 237 243 250 262 279 303 316 327 334 337 335 329 310 298 305 313 318
5 3 355 351 340 332 322 304 286 270 261 257 257 258 252 245 240 237 233 232 229 227 230 232 234 235 234 242 247 258 272 293 310 324 330 335 334 332 317 304 306 306 308
356 359 0 359 356 347 340 332 314 293 273 260 256 256 249 242 240 236 232 230 225 225 227 230 232 235 235 239 245 253 265 282 301 317 329 334 333 334 318 306 301 302 310
346 348 352 355 356 354 347 346 339 320 296 282 269 255 244 236 235 231 227 224 221 223 225 229 231 234 234 236 243 248 258 270 291 309 324 333 332 336 333 319 300 307 312
332 334 340 341 349 353 354 348 344 337 314 297 298 273 245 237 233 226 222 218 219 222 226 229 232 235 235 238 241 245 252 263 280 300 317 330 333 337 339 333 319 313 308
326 326 329 329 335 343 349 348 341 340 331 307 296 282 256 236 227 224 221 219 220 223 227 231 234 237 238 240 240 241 246 254 270 287 305 324 331 337 341 343 335 334 325
322 324 325 326 327 329 335 341 338 335 333 329 301 288 267 242 232 228 225 224 227 231 234 239 241 244 243 249 251 247 246 251 261 275 293 314 329 336 340 341 337 330 345
317 319 325 325 325 325 328 329 332 330 324 335 326 289 266 261 249 239 235 231 232 235 237 239 241 243 245 239 241 243 244 245 252 261 276 297 322 326 332 327 333 327 339